Regional Weather Roundup
Issued by NWS

Home | Current Version | Previous Version | Text Only | Print | Product List | Glossary On
Versions: 1 2 3 4 5 6 7 8 9 10 11 12 13 14 15 16 17 18 19 20 21 22 23 24 25 26 27 28 29 30 31 32 33 34 35 36 37 38 39 40 41 42 43 44 45 46 47 48 49 50
000
ASUS44 KFWD 280410
RWRTX
NORTH TEXAS HOURLY WEATHER ROUNDUP
NATIONAL WEATHER SERVICE FORT WORTH TX
1100 PM CDT WED JUL 27 2016

NOTE: "FAIR" INDICATES FEW OR NO CLOUDS BELOW 12,000 FEET WITH NO
SIGNIFICANT WEATHER AND/OR OBSTRUCTIONS TO VISIBILITY.

TXZ118-119-280500-
DALLAS/FORT WORTH METROPLEX

CITY           SKY/WX    TMP DP  RH WIND       PRES   REMARKS
DFW AIRPORT    CLOUDY    85  71  63 S8        29.94R HX  90
DALLAS LOVE    CLOUDY    86  73  65 SE13      29.95R HX  93
FTW MEACHAM    CLOUDY    84  72  67 S9        29.94S
FTW-ALLIANCE   MOCLDY    83  71  67 S7        29.94S
FTW-NAS-JRB    CLOUDY    83  70  64 S8        29.94S
FTW-SPINKS     CLOUDY    79  72  77 S3        29.96S
ARLINGTON        N/A     84  72  67 S5        29.95R
GRAND PRAIRIE  CLOUDY    84  70  62 S6        29.97R
ADDISON        MOCLDY    83  75  78 S8        29.97S HAZE    HX  90
MESQUITE       CLOUDY    82  73  72 SE3       29.96R
LANCASTER      CLOUDY    81  75  82 CALM      29.96S
$$

TXZ091>094-102>105-117-120-121-131>134-280500-
NORTH CENTRAL TEXAS

CITY           SKY/WX    TMP DP  RH WIND       PRES   REMARKS
SHRMAN/DENISON PTCLDY    81  73  77 SE10      29.97R
GAINESVILLE    CLEAR     77  75  93 CALM      29.98S
BOWIE          PTCLDY    78  72  83 CALM      29.97R
BRIDGEPORT     CLEAR     76  76 100 CALM      29.97F
DECATUR        PTCLDY    77  74  90 CALM      29.96F
DENTON         PTCLDY    81  76  84 SE7       29.94S
MCKINNEY       CLOUDY    80  75  84 SE9       29.95S
GREENVILLE     CLOUDY    79  72  78 S6        29.96F
ROCKWALL       CLOUDY    79  75  87 SE6       29.95S
TERRELL        LGT RAIN  80  75  84 E5        29.97R
WAXAHACHIE     CLOUDY    79  75  87 CALM      29.96F
CLEBURNE       PTCLDY    81  75  83 CALM      29.97S
GRANBURY       CLOUDY    82  70  68 CALM      29.96F
$$

TXZ083>090-098>101-113>116-127>130-139>142-154-155-280500-
WESTERN NORTH TEXAS

CITY           SKY/WX    TMP DP  RH WIND       PRES   REMARKS
WICHITA FALLS  CLEAR     81  70  69 S8        29.95R
WF-KICKAPOO    CLEAR     83  69  62 S5        29.97R
VERNON         PTCLDY    85  65  51 S12       29.98R
ABILENE        PTCLDY    78  69  73 SE9       30.01R
ABILENE-DYESS  PTCLDY    80  68  67 SE9       29.99R
CISCO          CLOUDY    77  72  83 S7        30.02R
BRECKENRIDGE   PTCLDY    80  68  66 S5        29.98S
GRAHAM         CLEAR     79  71  76 S3        29.96S
MINERAL WELLS  CLOUDY    77  72  84 SW5       29.95R
STEPHENVILLE   CLOUDY    74  70  85 SW3       30.01R
COMANCHE       LGT RAIN  74  74 100 CALM      30.00R
BROWNWOOD      CLOUDY    75  72  88 NE5       30.00R
COLEMAN        CLOUDY    76  71  84 E3        30.01R
$$

TXZ143>147-156>162-174-175-280500-
CENTRAL TEXAS

CITY           SKY/WX    TMP DP  RH WIND       PRES   REMARKS
WACO           PTCLDY    80  71  74 S7        29.96R
WACO-TSTC      CLEAR     81  73  78 S5        29.96R
WACO-MCGREGOR  PTCLDY    77  74  90 SW5       29.96R
HILLSBORO      CLOUDY    79  72  77 S7        29.96R
CORSICANA      CLOUDY    82  73  74 SE9       29.96S
MEXIA          CLEAR     77  75  92 S7        29.96S
HEARNE         CLEAR     77  72  84 CALM      29.97S
CAMERON        CLEAR     78  70  76 S5        29.96S
TEMPLE         MOCLDY    79  70  74 S10       29.97R
KILLEEN        MOCLDY    78  71  80 VRB3      29.97R
KILLEEN-SKYLRK MOCLDY    80  70  71 S3        29.98R
FORT HOOD      MOCLDY    79  69  70 SE5       29.96R
GATESVILLE     CLOUDY    81  72  74 CALM      29.99S
HAMILTON       RAIN      74  73  96 SW7       29.98F
LAMPASAS       PTCLDY    76  74  94 E5        29.98R
$$

TXZ095>097-106>112-122>126-135>138-148>153-164>167-280500-
EAST TEXAS

CITY           SKY/WX    TMP DP  RH WIND       PRES   REMARKS
PARIS          CLOUDY    75  64  69 S7        29.97S
SULPHUR SPRNGS CLOUDY    77  74  90 SE6       29.99R
MOUNT PLEASANT CLOUDY    75  70  84 SW3       29.98S
GILMER         CLOUDY    72  70  96 S5        29.95R
MINEOLA        CLOUDY    75  72  88 CALM      29.98S
TYLER          LGT RAIN  77  73  87 CALM      29.97S
LONGVIEW       LGT RAIN  74  73  97 SW3       29.97R
MARSHALL       CLOUDY    73  70  92 SE3       30.00S
ATHENS         CLOUDY    79  70  73 CALM      29.95F
PALESTINE      PTCLDY    80  74  81 SE3       29.98F
JACKSONVILLE   CLOUDY    79  73  83 S3        30.01S
HENDERSON      CLOUDY    75  69  80 CALM      30.00R
CENTER         MOCLDY    80  77  92 CALM      29.99R
NACOGDOCHES    CLOUDY   N/A N/A N/A S5        29.96F
LUFKIN         MOCLDY    77  75  93 S3        29.98S
$$

SUPPLEMENTAL OBSERVATIONS (CENTRAL)

CITY           SKY/WX    TMP DP  RH WIND       PRES   REMARKS
CADDO GRASSLND   N/A     79  70  73 S5          N/A
PAT MAYSE LAKE   N/A     77  72  83 SE6         N/A
GREENVILLE       N/A     79  72  78 S5          N/A
CEDAR HILL       N/A     79  73  83 SE2         N/A
MCGREGOR         N/A     75  72  88 S2          N/A
TEMPLE           N/A     75  68  78 S3          N/A
$$

SUPPLEMENTAL OBSERVATIONS (WEST)

CITY           SKY/WX    TMP DP  RH WIND       PRES   REMARKS
MILLERS CREEK    N/A     82  70  65 SE10        N/A
POSSUM KINGDOM   N/A     79  70  73 SW5         N/A
LBJ GRASSLAND    N/A     77  73  88 SE2         N/A
GRANBURY         N/A     81  70  69 SW3         N/A
HAMBY            N/A     79  68  69 SE7         N/A
IVIE RESERVOIR   N/A     77  72  83 NE5         N/A
COLORADO BEND    N/A     73  70  88 N1          N/A
$$

SUPPLEMENTAL OBSERVATIONS (EAST)

CITY           SKY/WX    TMP DP  RH WIND       PRES   REMARKS
CLARKSVILLE      N/A     73  72  94 S3          N/A
TEXARKANA        N/A     73  72  94 CALM        N/A
LINDEN           N/A     73  70  88 SW1         N/A
GILMER           N/A     72  70  94 S1          N/A
HENDERSON        N/A     75  70  83 N2          N/A
LUFKIN           N/A     77  75  94 MISG        N/A
N SABINE NF      N/A     77  73  88 MISG        N/A
S SABINE NF      N/A     77  72  83 S1          N/A
$$

SUPPLEMENTAL OBSERVATIONS ARE A COLLECTION OF AUTOMATED INSTRUMENTS
THAT ARE MAINTAINED BY A VARIETY OF FEDERAL AND STATE AGENCIES.
CERTAIN ELEMENTS...SUCH AS HUMIDITY VALUES AND SUSTAINED WIND
SPEEDS...MAY BE APPROXIMATED.





USA.gov is the U.S. government's official web portal to all federal, state and local government web resources and services.